[[{"header":{"parameterUnit":"m.s-1","parameterCategory":1,"la1":30.2991,"la2":30.254,"lo1":-89.0895,"lo2":-89.0444,"dy":0.0017,"dx":0.0017,"nx":28,"ny":28,"refTime":"2024-04-12T09:00:00:Z","depth":0,"parameterNumber":2,"parameterNumberName":"U-component_of_WINDS"},"data":[0,0,0,0,0,0,0,0,0,0,0,0,0,0,0,0,0,0,0,0,0,0,0,0,0,0,0,0,0,0,0,0,0,0,0,0,0,0,0,0,0,0,0,0,0,0,0,0,0,0,0,0,0,0,0,0,0,0,1.5926,1.5926,0,1.5985,1.5986,1.5986,1.5976,1.5975,1.5974,1.5973,1.6034,1.6037,1.6039,0,0,0,0,0,0,0,0,0,0,0,0,0,1.5805,1.5807,1.5926,1.5926,1.5927,1.5985,1.5986,1.5986,1.5976,1.5975,1.5974,1.5973,1.6033,1.6036,1.6039,0,0,0,0,0,0,0,0,0,0,0,0,0,1.586,1.5808,1.5925,1.5929,1.593,1.5985,1.5986,1.5987,1.5977,1.5975,1.5974,1.5972,1.6032,1.6036,1.604,1.6095,0,0,1.6052,1.6053,0,0,0,0,0,0,0,0,1.5857,1.5864,1.5928,1.5929,1.593,1.5972,1.5965,1.6023,1.5977,1.5959,1.5973,1.5971,1.6015,1.602,1.6034,1.6098,1.61,1.6052,1.6054,1.6056,1.6057,0,0,0,0,0,0,0,1.5853,1.5862,1.5949,1.5929,1.593,1.5928,1.5934,1.5976,1.5995,1.596,1.596,1.5967,1.6015,1.6031,1.6036,1.6101,1.6052,1.6055,1.6058,1.6059,1.6214,1.6216,0,0,0,0,0,0,1.5848,1.5859,1.5947,1.5951,1.5889,1.5931,1.5938,1.596,1.5994,1.5998,1.5968,1.5966,1.6025,1.6031,1.6038,1.6106,1.6056,1.606,1.6062,1.6213,1.6215,1.6217,0,0,0,0,0,0,1.5845,1.5856,1.5945,1.5905,1.5916,1.5935,1.5959,1.5962,1.5978,1.6,1.6003,1.5981,1.6024,1.6032,1.6081,1.6108,1.6061,1.6065,1.621,1.6213,1.6216,1.6241,0,0,0,0,0,0,1.5842,1.5855,1.5876,1.5905,1.5918,1.5987,1.5961,1.5964,1.5984,1.5982,1.6013,1.6016,1.6023,1.6075,1.6085,1.6112,1.6068,1.6208,1.6212,1.6215,1.6238,1.6244,1.625,0,0,0,0,0,1.5838,1.588,1.5877,1.5888,1.5944,1.5988,1.5996,1.6002,1.5986,1.6008,1.6023,1.6016,1.6103,1.608,1.6091,1.612,1.6207,1.6211,1.6215,1.6235,1.6243,1.6249,0,0,0,0,0,0,1.5853,1.5884,1.5881,1.5934,1.5959,1.5986,1.6013,1.601,1.604,1.6037,1.6044,1.6051,1.6101,1.6115,1.6089,1.6176,1.6153,1.6159,1.6165,1.6172,1.6178,1.6174,1.6071,0,0,0,0,0,1.5862,1.5895,1.5921,1.5965,1.5978,1.5994,1.6013,1.6016,1.6042,1.6053,1.6071,1.6097,1.613,1.6152,1.6184,1.624,1.6247,1.6265,1.6271,1.6276,1.6281,1.6313,1.6322,1.623,1.623,1.623,0,0,1.5882,1.5903,1.5924,1.5969,1.5988,1.6023,1.6002,1.6039,1.6066,1.6058,1.6106,1.612,1.6149,1.6203,1.6227,1.6216,1.6308,1.6281,1.6284,1.6287,1.6318,1.6327,1.6335,1.6233,1.6232,1.6232,0,0,1.5937,1.5956,1.5995,1.6016,1.6046,1.6056,1.6066,1.6095,1.6104,1.6152,1.6148,1.6179,1.6236,1.6258,1.6276,1.634,1.6336,1.6351,1.6381,1.6413,1.642,1.6426,1.6451,1.6459,1.6356,1.6356,1.6356,0,1.5958,1.6009,1.6016,1.6054,1.6075,1.6071,1.6112,1.6131,1.617,1.6184,1.6172,1.6244,1.6263,1.6322,1.6338,1.6353,1.6365,1.6347,1.6418,1.6425,1.6431,1.6454,1.6463,1.6358,1.6357,1.6357,1.6357,0,1.6035,1.6071,1.6099,1.6138,1.6162,1.6201,1.6214,1.6237,1.6239,1.6251,1.6301,1.6324,1.6361,1.6375,1.6377,1.6435,1.6427,1.6417,1.6394,1.6442,1.6463,1.6472,1.636,1.636,1.6359,1.6359,0,0,1.6099,1.6142,1.6153,1.6171,1.6204,1.6233,1.6272,1.6309,1.6329,1.6357,1.6391,1.644,1.6431,1.6452,1.6456,1.6483,1.6535,1.6469,1.647,1.6481,1.6602,1.661,1.662,1.6532,1.6533,1.6535,1.6599,0,1.6158,1.6228,1.6236,1.6298,1.6333,1.633,1.6364,1.6389,1.6402,1.6433,1.6447,1.6482,1.6467,1.648,1.6507,1.6523,1.6559,1.6518,1.6564,1.6566,1.6557,1.6631,1.664,1.67,1.6608,1.6609,1.661,0,1.6235,1.6265,1.6331,1.6362,1.6376,1.6407,1.6443,1.6472,1.6501,1.6508,1.6533,1.6534,1.6575,1.6551,1.6609,1.6581,1.6601,1.6612,1.6614,1.6619,1.6591,1.6639,1.6719,1.6728,1.6624,1.6623,1.6622,0,1.6277,1.6334,1.6381,1.6397,1.6433,1.6455,1.6472,1.6499,1.6521,1.6552,1.6566,1.6602,1.6621,1.6649,1.666,1.664,1.6718,1.6694,1.6726,1.6726,1.6743,1.6741,1.6828,1.6754,1.6754,1.6754,1.6754,0,1.6341,1.6382,1.6401,1.643,1.6476,1.6486,1.6531,1.6547,1.6571,1.6604,1.6603,1.6634,1.6646,1.6679,1.6688,1.6736,1.6745,1.6752,1.6754,1.6753,1.6752,1.6766,1.6762,1.6756,1.6756,1.6755,1.6755,0,1.6396,1.641,1.6462,1.6492,1.6501,1.6534,1.656,1.6589,1.6602,1.6644,1.6654,1.6674,1.6713,1.6727,1.6774,1.678,1.6836,1.6834,1.6826,1.6827,1.6859,1.6856,1.6957,1.6972,1.6888,1.6889,1.6889,0,1.6436,1.6468,1.6502,1.6524,1.6541,1.6577,1.66,1.661,1.6634,1.667,1.6695,1.6734,1.6765,1.6828,1.6847,1.6884,1.6883,1.6916,1.6889,1.6887,1.6885,1.6883,1.6887,1.6922,1.6922,1.6923,1.6924,0,1.6507,1.6513,1.6546,1.6582,1.6609,1.6638,1.6666,1.6684,1.6699,1.6726,1.6766,1.6791,1.684,1.6879,1.6917,1.6934,1.6932,1.6932,1.6942,1.6941,1.6936,1.694,1.6841,1.693,1.6929,1.6929,1.6929,1.6928,1.6556,1.6585,1.6614,1.6651,1.6673,1.67,1.6729,1.6746,1.6779,1.682,1.6825,1.6868,1.6897,1.6948,1.6967,1.7002,1.6993,1.7006,1.701,1.7013,1.7016,1.693,1.7009,1.7008,1.7008,1.7008,1.7008,0,1.6628,1.6646,1.6681,1.672,1.675,1.6746,1.6777,1.6802,1.684,1.6868,1.6899,1.6946,1.6985,1.7007,1.7046,1.7069,1.707,1.7079,1.7078,1.7082,1.7021,1.701,1.7079,1.7079,1.7079,1.7078,1.7078,1.7078,1.6668,1.6717,1.6726,1.6786,1.6805,1.6848,1.6866,1.6891,1.6913,1.6966,1.6998,1.7012,1.7038,1.7079,1.7114,1.712,1.7135,1.7146,1.7151,1.7093,1.7086,1.7079,1.7068,1.7148,1.7149,1.7209,1.7209,1.7209]},{"header":{"parameterUnit":"m.s-1","parameterCategory":1,"la1":30.2991,"la2":30.254,"lo1":-89.0895,"lo2":-89.0444,"dy":0.0017,"dx":0.0017,"nx":28,"ny":28,"refTime":"2024-04-12T09:00:00:Z","depth":0,"parameterNumber":3,"parameterNumberName":"V-component_of_WINDS"},"data":[0,0,0,0,0,0,0,0,0,0,0,0,0,0,0,0,0,0,0,0,0,0,0,0,0,0,0,0,0,0,0,0,0,0,0,0,0,0,0,0,0,0,0,0,0,0,0,0,0,0,0,0,0,0,0,0,0,0,-2.8748,-2.8749,0,-2.8838,-2.8839,-2.884,-2.888,-2.888,-2.888,-2.888,-2.8971,-2.8974,-2.8976,0,0,0,0,0,0,0,0,0,0,0,0,0,-2.8612,-2.8614,-2.8748,-2.8749,-2.875,-2.8838,-2.8839,-2.884,-2.8881,-2.888,-2.888,-2.888,-2.8971,-2.8974,-2.8977,0,0,0,0,0,0,0,0,0,0,0,0,0,-2.8683,-2.8615,-2.8747,-2.8781,-2.8784,-2.8837,-2.8839,-2.884,-2.8881,-2.888,-2.888,-2.888,-2.897,-2.8973,-2.8977,-2.9003,0,0,-2.8989,-2.899,0,0,0,0,0,0,0,0,-2.8679,-2.8688,-2.8775,-2.8778,-2.8783,-2.8848,-2.8824,-2.8895,-2.8881,-2.8844,-2.888,-2.888,-2.893,-2.8937,-2.8955,-2.9007,-2.9011,-2.8989,-2.8991,-2.8993,-2.8994,0,0,0,0,0,0,0,-2.8674,-2.8684,-2.8783,-2.8776,-2.8781,-2.8791,-2.8801,-2.8838,-2.8887,-2.8847,-2.885,-2.8861,-2.8933,-2.8951,-2.8957,-2.9013,-2.8989,-2.8992,-2.8994,-2.8996,-2.9095,-2.9095,0,0,0,0,0,0,-2.8664,-2.868,-2.878,-2.8786,-2.873,-2.8794,-2.8805,-2.8827,-2.8887,-2.8896,-2.8861,-2.8862,-2.8944,-2.8953,-2.896,-2.8997,-2.8993,-2.8996,-2.8999,-2.9095,-2.9095,-2.9096,0,0,0,0,0,0,-2.866,-2.8672,-2.8777,-2.8734,-2.8748,-2.8797,-2.8821,-2.8829,-2.8847,-2.8897,-2.8906,-2.887,-2.8945,-2.8955,-2.8993,-2.9001,-2.8998,-2.9001,-2.9094,-2.9095,-2.9095,-2.9069,0,0,0,0,0,0,-2.8656,-2.8671,-2.8681,-2.8734,-2.875,-2.8807,-2.8821,-2.8831,-2.8854,-2.8857,-2.8908,-2.8916,-2.8945,-2.8987,-2.8997,-2.9006,-2.9004,-2.9094,-2.9095,-2.9095,-2.907,-2.9069,-2.9068,0,0,0,0,0,-2.8651,-2.8669,-2.8681,-2.8693,-2.8764,-2.8808,-2.8817,-2.885,-2.8854,-2.8865,-2.8897,-2.8915,-2.8998,-2.8991,-2.9002,-2.9012,-2.9094,-2.9094,-2.9095,-2.907,-2.9069,-2.9068,0,0,0,0,0,0,-2.8614,-2.8676,-2.869,-2.8725,-2.8761,-2.8814,-2.8829,-2.8848,-2.8883,-2.8884,-2.8923,-2.8935,-2.897,-2.8995,-2.8985,-2.9042,-2.9048,-2.9051,-2.9025,-2.9024,-2.9023,-2.9017,-2.9008,0,0,0,0,0,-2.861,-2.8641,-2.8693,-2.8719,-2.8737,-2.878,-2.88,-2.8823,-2.8861,-2.8876,-2.8911,-2.8948,-2.8983,-2.9005,-2.9039,-2.9074,-2.9086,-2.9086,-2.9086,-2.9085,-2.9087,-2.911,-2.9111,-2.9098,-2.9098,-2.9098,0,0,-2.8602,-2.864,-2.8656,-2.8713,-2.8743,-2.8775,-2.8792,-2.8824,-2.8848,-2.8881,-2.892,-2.8947,-2.8991,-2.9028,-2.9046,-2.905,-2.9094,-2.9086,-2.9085,-2.9088,-2.9111,-2.9112,-2.9113,-2.9099,-2.9099,-2.9099,0,0,-2.8603,-2.8634,-2.8661,-2.8691,-2.8738,-2.8767,-2.8773,-2.8824,-2.8844,-2.8884,-2.891,-2.8939,-2.8998,-2.9029,-2.9052,-2.9068,-2.9087,-2.9078,-2.9075,-2.9096,-2.9097,-2.9098,-2.9106,-2.9108,-2.9081,-2.9081,-2.908,0,-2.8587,-2.8635,-2.8671,-2.8703,-2.8728,-2.8761,-2.8789,-2.8816,-2.8871,-2.8888,-2.8892,-2.8968,-2.8999,-2.9045,-2.905,-2.9067,-2.9077,-2.9073,-2.9094,-2.9096,-2.9097,-2.9105,-2.9108,-2.9079,-2.9079,-2.908,-2.908,0,-2.8614,-2.8648,-2.8663,-2.8717,-2.8744,-2.8773,-2.8815,-2.8837,-2.8859,-2.8888,-2.8929,-2.8968,-2.9013,-2.9025,-2.9045,-2.9075,-2.9076,-2.9086,-2.9093,-2.9097,-2.9105,-2.9108,-2.9078,-2.9078,-2.9078,-2.9079,0,0,-2.8593,-2.8668,-2.8674,-2.87,-2.8755,-2.8781,-2.8813,-2.8858,-2.8877,-2.8915,-2.8943,-2.8993,-2.9004,-2.9031,-2.9055,-2.9074,-2.9087,-2.9083,-2.9084,-2.9083,-2.9125,-2.9117,-2.912,-2.91,-2.91,-2.9101,-2.9122,0,-2.8603,-2.8661,-2.8696,-2.8741,-2.8773,-2.8806,-2.8834,-2.8872,-2.89,-2.8932,-2.8964,-2.9,-2.901,-2.9027,-2.9047,-2.9081,-2.9096,-2.908,-2.9128,-2.9129,-2.9116,-2.9124,-2.9116,-2.9133,-2.9125,-2.9125,-2.9126,0,-2.8621,-2.866,-2.8708,-2.8762,-2.8777,-2.8802,-2.8847,-2.8877,-2.892,-2.894,-2.8971,-2.8996,-2.9033,-2.9036,-2.9087,-2.9076,-2.9097,-2.9117,-2.9119,-2.9125,-2.9128,-2.9131,-2.9139,-2.9142,-2.9131,-2.913,-2.913,0,-2.8603,-2.8667,-2.8705,-2.8726,-2.8789,-2.8806,-2.8833,-2.8877,-2.8902,-2.8942,-2.8959,-2.9002,-2.9025,-2.9058,-2.9095,-2.9094,-2.9143,-2.9149,-2.9162,-2.9161,-2.9171,-2.917,-2.9183,-2.9183,-2.9183,-2.9183,-2.9183,0,-2.8611,-2.8639,-2.8698,-2.8721,-2.8755,-2.8795,-2.8828,-2.8858,-2.8897,-2.8927,-2.8958,-2.8986,-2.9032,-2.9066,-2.9095,-2.9135,-2.9144,-2.9162,-2.917,-2.916,-2.9158,-2.9175,-2.9175,-2.9183,-2.9183,-2.9183,-2.9183,0,-2.8596,-2.8636,-2.868,-2.8737,-2.8752,-2.8775,-2.8824,-2.8849,-2.888,-2.8919,-2.893,-2.8979,-2.9021,-2.9061,-2.9116,-2.9136,-2.9176,-2.9185,-2.9161,-2.9166,-2.9177,-2.9176,-2.9202,-2.9209,-2.9203,-2.9203,-2.9203,0,-2.8598,-2.8621,-2.8682,-2.8705,-2.8732,-2.8769,-2.8796,-2.8837,-2.8864,-2.8917,-2.8936,-2.898,-2.9018,-2.9084,-2.9125,-2.9168,-2.918,-2.9186,-2.9186,-2.9177,-2.9182,-2.918,-2.9184,-2.9185,-2.9185,-2.9185,-2.9185,0,-2.8599,-2.8618,-2.8656,-2.8702,-2.8733,-2.8771,-2.8809,-2.8826,-2.8875,-2.8904,-2.8948,-2.8978,-2.9036,-2.9081,-2.913,-2.9159,-2.9181,-2.9185,-2.919,-2.9181,-2.9167,-2.9177,-2.9161,-2.9184,-2.9184,-2.9184,-2.9184,-2.9184,-2.8594,-2.8617,-2.8664,-2.8706,-2.874,-2.8776,-2.8803,-2.8838,-2.8876,-2.8927,-2.895,-2.8995,-2.9041,-2.9109,-2.9138,-2.9174,-2.9179,-2.9186,-2.9189,-2.919,-2.9189,-2.9161,-2.9183,-2.9183,-2.9183,-2.9183,-2.9183,0,-2.8597,-2.863,-2.8668,-2.8723,-2.8756,-2.8775,-2.8819,-2.8846,-2.8886,-2.8927,-2.8964,-2.9016,-2.9061,-2.9106,-2.9153,-2.9174,-2.9185,-2.9185,-2.9184,-2.9191,-2.9181,-2.9172,-2.9175,-2.9175,-2.9175,-2.9175,-2.9175,-2.9175,-2.8603,-2.8644,-2.867,-2.8729,-2.8762,-2.8807,-2.8831,-2.8865,-2.8899,-2.8956,-2.8993,-2.9023,-2.9067,-2.9118,-2.916,-2.9172,-2.9189,-2.9186,-2.9201,-2.9191,-2.9191,-2.9191,-2.9184,-2.9188,-2.9188,-2.9208,-2.9208,-2.9208]}]]